EIN850 EICK-LEBB

Flight info

Callsign EIN850
Flight time N/A
Altitude 37000
Route ERTER1N ERTER DCT LEDGO N160 EVCOR DCT DOLUR DCT IDRIK DCT NENEM N867 MAPAX
Aircraft A320/M-SDE3FGHIRWY/LB1

Departure

Time 2026-04-27 07:46
Airport Cork International Airport (EICK)

Arrival

Time N/A
Airport Bilbao Airport (LEBB)
Time Latitude Longitude Altitude Speed Heading
2026-04-27 07:12 51.84934 -8.49119 505 ft 0 kts 70°
2026-04-27 07:34 51.84927 -8.49150 504 ft 4 kts 72°
2026-04-27 07:35 51.84920 -8.49192 504 ft 4 kts 77°
2026-04-27 07:35 51.84916 -8.49234 504 ft 4 kts 96°
2026-04-27 07:35 51.84923 -8.49267 504 ft 3 kts 159°
2026-04-27 07:35 51.84927 -8.49269 504 ft 0 kts 166°
2026-04-27 07:39 51.84921 -8.49267 504 ft 1 kts 166°
2026-04-27 07:39 51.84913 -8.49264 504 ft 3 kts 165°
2026-04-27 07:39 51.84856 -8.49233 504 ft 11 kts 162°
2026-04-27 07:40 51.84785 -8.49206 504 ft 10 kts 168°
2026-04-27 07:40 51.84721 -8.49179 504 ft 9 kts 161°
2026-04-27 07:40 51.84667 -8.49147 504 ft 8 kts 159°
2026-04-27 07:40 51.84618 -8.49117 504 ft 9 kts 159°
2026-04-27 07:41 51.84534 -8.49066 504 ft 13 kts 159°
2026-04-27 07:41 51.84451 -8.49016 504 ft 12 kts 159°
2026-04-27 07:41 51.84376 -8.48984 504 ft 11 kts 191°
2026-04-27 07:41 51.84337 -8.49070 504 ft 9 kts 247°
2026-04-27 07:42 51.84308 -8.49160 504 ft 12 kts 230°
2026-04-27 07:42 51.84201 -8.49156 504 ft 21 kts 160°
2026-04-27 07:42 51.84070 -8.49079 504 ft 19 kts 160°
2026-04-27 07:42 51.83949 -8.49009 504 ft 18 kts 160°
2026-04-27 07:43 51.83838 -8.48944 504 ft 16 kts 159°
2026-04-27 07:43 51.83737 -8.48883 504 ft 15 kts 159°
2026-04-27 07:43 51.83643 -8.48827 504 ft 14 kts 159°
2026-04-27 07:43 51.83553 -8.48773 504 ft 17 kts 159°
2026-04-27 07:44 51.83397 -8.48680 504 ft 27 kts 160°
2026-04-27 07:44 51.83301 -8.48593 504 ft 14 kts 115°
2026-04-27 07:44 51.83245 -8.48558 504 ft 10 kts 240°
2026-04-27 07:44 51.83289 -8.48619 504 ft 10 kts 346°
2026-04-27 07:45 51.83340 -8.48646 504 ft 0 kts 340°
2026-04-27 07:45 51.83366 -8.48661 504 ft 14 kts 340°
2026-04-27 07:45 51.83653 -8.48829 505 ft 80 kts 340°
2026-04-27 07:45 51.84378 -8.49257 523 ft 136 kts 340°
2026-04-27 07:46 51.85284 -8.49779 1026 ft 144 kts 339°
2026-04-27 07:46 51.86260 -8.50349 1644 ft 153 kts 342°
2026-04-27 07:46 51.87276 -8.50936 2244 ft 159 kts 345°
2026-04-27 07:46 51.88411 -8.51484 2582 ft 181 kts 348°
2026-04-27 07:47 51.89710 -8.51309 2886 ft 202 kts 30°
2026-04-27 07:47 51.90674 -8.49525 3264 ft 229 kts 69°
2026-04-27 07:47 51.90723 -8.46839 3755 ft 254 kts 102°
2026-04-27 07:47 51.90120 -8.44093 4571 ft 263 kts 112°
2026-04-27 07:48 51.89309 -8.41402 5504 ft 268 kts 115°
2026-04-27 07:48 51.88445 -8.38745 6365 ft 273 kts 116°
2026-04-27 07:48 51.87552 -8.35996 7213 ft 279 kts 115°
2026-04-27 07:48 51.86663 -8.33184 8073 ft 283 kts 114°
2026-04-27 07:49 51.85785 -8.30319 8948 ft 286 kts 113°
2026-04-27 07:49 51.84899 -8.27419 9811 ft 290 kts 117°
2026-04-27 07:49 51.83693 -8.24762 10634 ft 298 kts 131°
2026-04-27 07:49 51.82207 -8.22261 10967 ft 320 kts 131°
2026-04-27 07:50 51.80604 -8.19574 11193 ft 344 kts 132°
2026-04-27 07:50 51.78908 -8.16737 11370 ft 366 kts 132°
2026-04-27 07:50 51.77112 -8.13745 11876 ft 376 kts 132°
2026-04-27 07:50 51.75223 -8.10785 12566 ft 382 kts 139°
2026-04-27 07:51 51.72994 -8.08389 13258 ft 389 kts 150°
2026-04-27 07:51 51.70468 -8.06752 13930 ft 396 kts 163°
2026-04-27 07:51 51.67737 -8.05990 14550 ft 402 kts 175°
2026-04-27 07:51 51.64923 -8.05956 15150 ft 406 kts 179°
2026-04-27 07:52 51.62081 -8.05969 15738 ft 410 kts 178°
2026-04-27 07:52 51.59237 -8.05465 16314 ft 413 kts 166°
2026-04-27 07:52 51.56520 -8.04133 16893 ft 415 kts 155°
2026-04-27 07:52 51.53970 -8.01989 17456 ft 415 kts 144°
2026-04-27 07:53 51.51708 -7.99117 18085 ft 415 kts 133°
2026-04-27 07:53 51.49630 -7.95885 18695 ft 417 kts 133°
2026-04-27 07:53 51.47527 -7.92636 19204 ft 421 kts 133°
2026-04-27 07:53 51.45405 -7.89375 19699 ft 424 kts 133°
2026-04-27 07:54 51.43263 -7.86099 20186 ft 427 kts 132°
2026-04-27 07:54 51.41108 -7.82810 20661 ft 430 kts 132°
2026-04-27 07:54 51.38933 -7.79492 21130 ft 433 kts 132°
2026-04-27 07:54 51.36742 -7.76152 21600 ft 436 kts 132°
2026-04-27 07:55 51.34566 -7.72837 22019 ft 439 kts 131°
2026-04-27 07:55 51.32348 -7.69456 22450 ft 442 kts 131°
2026-04-27 07:55 51.30116 -7.66060 22914 ft 444 kts 131°
2026-04-27 07:55 51.27872 -7.62653 23349 ft 446 kts 132°
2026-04-27 07:56 51.25613 -7.59230 23748 ft 449 kts 132°
2026-04-27 07:56 51.23345 -7.55798 24103 ft 451 kts 132°
2026-04-27 07:56 51.21057 -7.52347 24431 ft 454 kts 132°
2026-04-27 07:56 51.18756 -7.48886 24766 ft 456 kts 132°
2026-04-27 07:57 51.16478 -7.45458 25104 ft 457 kts 132°
2026-04-27 07:57 51.14161 -7.41972 25420 ft 459 kts 132°
2026-04-27 07:57 51.11834 -7.38477 25733 ft 461 kts 132°
2026-04-27 07:57 51.09497 -7.34974 26045 ft 462 kts 132°
2026-04-27 07:58 51.07156 -7.31472 26351 ft 464 kts 133°
2026-04-27 07:58 51.04802 -7.27954 26641 ft 465 kts 132°
2026-04-27 07:58 51.02441 -7.24424 26922 ft 467 kts 132°
2026-04-27 07:58 51.00073 -7.20881 27184 ft 468 kts 132°
2026-04-27 07:59 50.97695 -7.17330 27437 ft 470 kts 132°
2026-04-27 07:59 50.92938 -7.10263 27919 ft 473 kts 132°
2026-04-27 07:59 50.90530 -7.06701 28190 ft 473 kts 132°
2026-04-27 08:00 50.88122 -7.03150 28520 ft 472 kts 133°
2026-04-27 08:00 50.85716 -6.99613 28845 ft 472 kts 133°
2026-04-27 08:00 50.83312 -6.96088 29169 ft 471 kts 133°
2026-04-27 08:00 50.80910 -6.92571 29487 ft 470 kts 132°
2026-04-27 08:01 50.78510 -6.89061 29812 ft 470 kts 132°
2026-04-27 08:01 50.76116 -6.85557 30130 ft 469 kts 132°
2026-04-27 08:01 50.73762 -6.82113 30447 ft 468 kts 132°
2026-04-27 08:01 50.71374 -6.78621 30731 ft 468 kts 132°
2026-04-27 08:02 50.68986 -6.75136 30992 ft 468 kts 132°
2026-04-27 08:02 50.66595 -6.71660 31266 ft 467 kts 133°
2026-04-27 08:02 50.64204 -6.68192 31532 ft 467 kts 133°
2026-04-27 08:02 50.61814 -6.64729 31806 ft 467 kts 133°
2026-04-27 08:03 50.59427 -6.61270 32081 ft 466 kts 133°
2026-04-27 08:03 50.57074 -6.57863 32353 ft 466 kts 133°
2026-04-27 08:03 50.54689 -6.54417 32622 ft 465 kts 133°
2026-04-27 08:03 50.52305 -6.50978 32905 ft 465 kts 133°
2026-04-27 08:04 50.49928 -6.47550 33184 ft 464 kts 134°
2026-04-27 08:04 50.47551 -6.44127 33474 ft 463 kts 134°
2026-04-27 08:04 50.45174 -6.40714 33787 ft 462 kts 134°
2026-04-27 08:04 50.42810 -6.37326 34096 ft 461 kts 134°
2026-04-27 08:05 50.40439 -6.33933 34379 ft 460 kts 134°
2026-04-27 08:05 50.38083 -6.30558 34610 ft 460 kts 134°
2026-04-27 08:05 50.35722 -6.27174 34823 ft 460 kts 134°
2026-04-27 08:05 50.33363 -6.23797 35045 ft 460 kts 135°
2026-04-27 08:06 50.31030 -6.20467 35252 ft 460 kts 135°
2026-04-27 08:06 50.28659 -6.17099 35458 ft 460 kts 135°
2026-04-27 08:06 50.26283 -6.13732 35655 ft 460 kts 135°
2026-04-27 08:06 50.23912 -6.10376 35864 ft 460 kts 135°
2026-04-27 08:07 50.21538 -6.07017 36064 ft 460 kts 135°
2026-04-27 08:07 50.19172 -6.03673 36254 ft 460 kts 135°
2026-04-27 08:07 50.16796 -6.00318 36435 ft 460 kts 136°
2026-04-27 08:07 50.14457 -5.97012 36609 ft 460 kts 136°
2026-04-27 08:08 50.12092 -5.93667 36787 ft 460 kts 136°
2026-04-27 08:08 50.09718 -5.90324 36963 ft 460 kts 136°
2026-04-27 08:08 50.07340 -5.86990 37131 ft 460 kts 136°
2026-04-27 08:08 50.04962 -5.83662 37278 ft 460 kts 136°
2026-04-27 08:09 50.00188 -5.76984 37302 ft 462 kts 137°
2026-04-27 08:09 49.95394 -5.70300 37304 ft 463 kts 137°
2026-04-27 08:10 49.90640 -5.63682 37312 ft 463 kts 137°
2026-04-27 08:10 49.85848 -5.57022 37312 ft 462 kts 137°
2026-04-27 08:11 49.81049 -5.50375 37310 ft 463 kts 137°
2026-04-27 08:11 49.76237 -5.43743 37311 ft 463 kts 137°
2026-04-27 08:12 49.71421 -5.37116 37302 ft 465 kts 137°
2026-04-27 08:12 49.66615 -5.30515 37294 ft 466 kts 137°
2026-04-27 08:13 49.61762 -5.23872 37301 ft 466 kts 138°
2026-04-27 08:13 49.56912 -5.17250 37314 ft 466 kts 139°
2026-04-27 08:14 49.52061 -5.10647 37320 ft 465 kts 139°
2026-04-27 08:14 49.46950 -5.04595 37311 ft 464 kts 151°
2026-04-27 08:15 49.41244 -5.00095 37319 ft 464 kts 154°
2026-04-27 08:15 49.35491 -4.95612 37307 ft 463 kts 154°
2026-04-27 08:16 49.29747 -4.91149 37309 ft 463 kts 154°
2026-04-27 08:16 49.24009 -4.86689 37301 ft 462 kts 154°
2026-04-27 08:17 49.18315 -4.82279 37303 ft 462 kts 154°
2026-04-27 08:17 49.12587 -4.77853 37302 ft 461 kts 154°
2026-04-27 08:18 49.06859 -4.73454 37297 ft 461 kts 154°
2026-04-27 08:18 49.01136 -4.69065 37298 ft 460 kts 155°
2026-04-27 08:19 48.95457 -4.64715 37293 ft 460 kts 155°
2026-04-27 08:19 48.89753 -4.60356 37292 ft 459 kts 155°
2026-04-27 08:20 48.84051 -4.56001 37292 ft 458 kts 154°
2026-04-27 08:20 48.78348 -4.51666 37285 ft 458 kts 155°
2026-04-27 08:21 48.72647 -4.47352 37277 ft 458 kts 155°
2026-04-27 08:21 48.66982 -4.43076 37282 ft 458 kts 155°
2026-04-27 08:22 48.61277 -4.38774 37277 ft 458 kts 155°
2026-04-27 08:22 48.55572 -4.34478 37268 ft 458 kts 155°
2026-04-27 08:23 48.49869 -4.30193 37263 ft 457 kts 155°
2026-04-27 08:23 48.44213 -4.25956 37270 ft 457 kts 155°
2026-04-27 08:24 48.38531 -4.21712 37270 ft 456 kts 155°
2026-04-27 08:24 48.32847 -4.17488 37265 ft 455 kts 156°
2026-04-27 08:25 48.27174 -4.13280 37259 ft 455 kts 156°
2026-04-27 08:25 48.21542 -4.09104 37257 ft 454 kts 156°
2026-04-27 08:26 48.15882 -4.04919 37242 ft 454 kts 156°
2026-04-27 08:26 48.10217 -4.00738 37233 ft 454 kts 156°
2026-04-27 08:27 48.04549 -3.96569 37234 ft 454 kts 156°
2026-04-27 08:27 47.98917 -3.92434 37236 ft 454 kts 156°
2026-04-27 08:28 47.93248 -3.88280 37231 ft 454 kts 156°
2026-04-27 08:28 47.87570 -3.84149 37237 ft 454 kts 156°
2026-04-27 08:29 47.81889 -3.80014 37240 ft 455 kts 156°
2026-04-27 08:29 47.76213 -3.75874 37242 ft 454 kts 157°
2026-04-27 08:30 47.70574 -3.71791 37249 ft 453 kts 157°
2026-04-27 08:30 47.64904 -3.67705 37254 ft 453 kts 157°
2026-04-27 08:31 47.59098 -3.64274 37239 ft 447 kts 170°
2026-04-27 08:31 47.52980 -3.63119 37235 ft 443 kts 177°
2026-04-27 08:32 47.46886 -3.62226 37230 ft 443 kts 177°
2026-04-27 08:32 47.40757 -3.61313 37235 ft 442 kts 177°
2026-04-27 08:33 47.34632 -3.60405 37234 ft 442 kts 177°
2026-04-27 08:33 47.28512 -3.59511 37225 ft 442 kts 177°
2026-04-27 08:34 47.22396 -3.58628 37229 ft 442 kts 177°
2026-04-27 08:34 47.16327 -3.57744 37226 ft 442 kts 177°
2026-04-27 08:35 47.10207 -3.56862 37225 ft 442 kts 178°
2026-04-27 08:35 47.04086 -3.55976 37229 ft 442 kts 177°
2026-04-27 08:36 46.97964 -3.55080 37230 ft 442 kts 178°
2026-04-27 08:36 46.91853 -3.54201 37232 ft 442 kts 178°
2026-04-27 08:37 46.85778 -3.53329 37222 ft 441 kts 178°
2026-04-27 08:37 46.79664 -3.52451 37228 ft 441 kts 178°
2026-04-27 08:38 46.73552 -3.51583 37228 ft 441 kts 178°
2026-04-27 08:38 46.67439 -3.50715 37229 ft 441 kts 178°
2026-04-27 08:39 46.61374 -3.49847 37229 ft 441 kts 178°
2026-04-27 08:39 46.55262 -3.48975 37230 ft 441 kts 178°
2026-04-27 08:40 46.49150 -3.48105 37218 ft 441 kts 178°
2026-04-27 08:40 46.43040 -3.47248 37224 ft 441 kts 178°
2026-04-27 08:41 46.36971 -3.46390 37228 ft 441 kts 178°
2026-04-27 08:41 46.30862 -3.45527 37215 ft 441 kts 178°
2026-04-27 08:42 46.24759 -3.44676 37223 ft 441 kts 178°
2026-04-27 08:42 46.18647 -3.43827 37227 ft 441 kts 178°
2026-04-27 08:43 46.12538 -3.42975 37226 ft 441 kts 178°
2026-04-27 08:43 46.06471 -3.42129 37220 ft 441 kts 178°
2026-04-27 08:44 46.00374 -3.41274 37228 ft 441 kts 178°
2026-04-27 08:44 45.94271 -3.40416 37230 ft 441 kts 178°
2026-04-27 08:45 45.88169 -3.39565 37227 ft 440 kts 178°
2026-04-27 08:45 45.82071 -3.38735 37229 ft 440 kts 179°
2026-04-27 08:46 45.76014 -3.37904 37230 ft 440 kts 178°
2026-04-27 08:46 45.69926 -3.37057 37221 ft 440 kts 179°
2026-04-27 08:47 45.63835 -3.36225 37229 ft 440 kts 179°
2026-04-27 08:47 45.57745 -3.35391 37233 ft 440 kts 179°
2026-04-27 08:48 45.51697 -3.34548 37220 ft 439 kts 179°
2026-04-27 08:48 45.45611 -3.33721 37229 ft 439 kts 179°
2026-04-27 08:49 45.39526 -3.32894 37233 ft 439 kts 179°
2026-04-27 08:49 45.33442 -3.32060 37214 ft 439 kts 179°
2026-04-27 08:50 45.27367 -3.31241 37222 ft 439 kts 179°
2026-04-27 08:50 45.21329 -3.30428 37232 ft 439 kts 179°
2026-04-27 08:51 45.15253 -3.29608 37227 ft 439 kts 179°
2026-04-27 08:51 45.09180 -3.28791 37228 ft 438 kts 179°
2026-04-27 08:52 45.03115 -3.27981 37232 ft 438 kts 179°
2026-04-27 08:52 44.97055 -3.27162 37234 ft 437 kts 179°
2026-04-27 08:53 44.91047 -3.26353 37223 ft 437 kts 179°
2026-04-27 08:53 44.84999 -3.25554 37229 ft 436 kts 179°
2026-04-27 08:54 44.78957 -3.24749 37233 ft 436 kts 178°
2026-04-27 08:54 44.72922 -3.23932 37233 ft 436 kts 178°
2026-04-27 08:55 44.66925 -3.23137 37234 ft 436 kts 179°
2026-04-27 08:55 44.60891 -3.22339 37234 ft 435 kts 178°
2026-04-27 08:56 44.54857 -3.21541 37214 ft 435 kts 178°
2026-04-27 08:56 44.48829 -3.20750 37226 ft 435 kts 178°
2026-04-27 08:57 44.39847 -3.19560 37228 ft 434 kts 178°
2026-04-27 08:58 44.33832 -3.18772 37215 ft 434 kts 178°
2026-04-27 08:58 44.27814 -3.17986 36944 ft 434 kts 178°
2026-04-27 08:58 44.24809 -3.17590 36683 ft 434 kts 178°
2026-04-27 08:59 44.21805 -3.17194 36422 ft 434 kts 178°
2026-04-27 08:59 44.18841 -3.16804 36171 ft 434 kts 178°
2026-04-27 08:59 44.15837 -3.16413 35902 ft 434 kts 178°
2026-04-27 08:59 44.12830 -3.16026 35654 ft 434 kts 178°
2026-04-27 09:00 44.09828 -3.15642 35401 ft 434 kts 178°
2026-04-27 09:00 44.06818 -3.15257 35155 ft 434 kts 178°
2026-04-27 09:00 44.03817 -3.14668 34844 ft 437 kts 172°
2026-04-27 09:00 44.00827 -3.13814 33886 ft 441 kts 172°
2026-04-27 09:01 43.97823 -3.12943 32910 ft 442 kts 172°
2026-04-27 09:01 43.94809 -3.12063 31899 ft 444 kts 172°
2026-04-27 09:01 43.91773 -3.11179 30906 ft 447 kts 172°
2026-04-27 09:01 43.88760 -3.10304 29785 ft 451 kts 172°
2026-04-27 09:02 43.85679 -3.09414 28584 ft 453 kts 171°
2026-04-27 09:02 43.82583 -3.08524 27432 ft 455 kts 171°
2026-04-27 09:02 43.79473 -3.07631 26218 ft 458 kts 171°
2026-04-27 09:02 43.76343 -3.06734 25030 ft 460 kts 171°
2026-04-27 09:03 43.73241 -3.05652 23875 ft 458 kts 162°
2026-04-27 09:03 43.70460 -3.03620 22614 ft 449 kts 146°
2026-04-27 09:03 43.68202 -3.00721 21618 ft 442 kts 132°
2026-04-27 09:03 43.66541 -2.97198 20536 ft 437 kts 116°
2026-04-27 09:04 43.65592 -2.93289 19725 ft 435 kts 102°
2026-04-27 09:04 43.65269 -2.89160 18897 ft 431 kts 96°
2026-04-27 09:04 43.64923 -2.85083 18027 ft 425 kts 100°
2026-04-27 09:04 43.64351 -2.81116 17236 ft 418 kts 105°
2026-04-27 09:05 43.63551 -2.77284 16477 ft 413 kts 110°
2026-04-27 09:05 43.62526 -2.73611 15762 ft 410 kts 115°
2026-04-27 09:05 43.61295 -2.70079 15043 ft 409 kts 119°
2026-04-27 09:05 43.59867 -2.66698 14343 ft 407 kts 123°
2026-04-27 09:06 43.58255 -2.63506 13634 ft 404 kts 128°
2026-04-27 09:06 43.56472 -2.60535 12959 ft 399 kts 133°
2026-04-27 09:06 43.54550 -2.57805 12285 ft 394 kts 137°
2026-04-27 09:06 43.52532 -2.55354 11651 ft 389 kts 142°
2026-04-27 09:07 43.50408 -2.53166 11467 ft 372 kts 146°
2026-04-27 09:07 43.48283 -2.51291 11331 ft 354 kts 150°
2026-04-27 09:07 43.46173 -2.49691 11215 ft 338 kts 154°
2026-04-27 09:07 43.44085 -2.48349 11090 ft 324 kts 158°
2026-04-27 09:08 43.42023 -2.47261 10967 ft 311 kts 162°
2026-04-27 09:08 43.39997 -2.46396 10838 ft 300 kts 165°
2026-04-27 09:08 43.38012 -2.45715 10720 ft 288 kts 168°
2026-04-27 09:08 43.36095 -2.45211 10562 ft 281 kts 172°
2026-04-27 09:09 43.34165 -2.44851 10431 ft 280 kts 175°
2026-04-27 09:09 43.32223 -2.44642 10309 ft 281 kts 178°
2026-04-27 09:09 43.30234 -2.44592 10179 ft 289 kts 181°
2026-04-27 09:09 43.28197 -2.44696 9556 ft 297 kts 185°
2026-04-27 09:10 43.26163 -2.44980 9243 ft 291 kts 188°
2026-04-27 09:10 43.24179 -2.45407 8879 ft 288 kts 191°
2026-04-27 09:10 43.22206 -2.45976 8200 ft 295 kts 194°
2026-04-27 09:10 43.20876 -2.46452 7686 ft 301 kts 196°
2026-04-27 09:11 43.18946 -2.47619 6939 ft 310 kts 219°
2026-04-27 09:11 43.17535 -2.50856 6584 ft 298 kts 258°
2026-04-27 09:11 43.17270 -2.53609 6439 ft 285 kts 265°
2026-04-27 09:11 43.17324 -2.56255 6307 ft 274 kts 282°
2026-04-27 09:12 43.18046 -2.58629 5879 ft 274 kts 299°
2026-04-27 09:12 43.18972 -2.60888 5667 ft 264 kts 297°
2026-04-27 09:12 43.19533 -2.62332 5620 ft 255 kts 296°
2026-04-27 09:12 43.20339 -2.64471 5333 ft 251 kts 296°
2026-04-27 09:13 43.21116 -2.66608 4997 ft 250 kts 295°
2026-04-27 09:13 43.21889 -2.68736 4663 ft 248 kts 296°
2026-04-27 09:13 43.22656 -2.70816 4170 ft 243 kts 296°
2026-04-27 09:13 43.23619 -2.73421 3983 ft 216 kts 296°
2026-04-27 09:14 43.24062 -2.74622 3987 ft 201 kts 296°
2026-04-27 09:14 43.24664 -2.76254 3985 ft 183 kts 296°
2026-04-27 09:14 43.25203 -2.77714 3983 ft 164 kts 296°
2026-04-27 09:14 43.25695 -2.79051 3981 ft 153 kts 296°
2026-04-27 09:15 43.26173 -2.80348 4003 ft 152 kts 296°
2026-04-27 09:15 43.26650 -2.81645 3987 ft 152 kts 296°
2026-04-27 09:15 43.27125 -2.82935 3981 ft 149 kts 296°
2026-04-27 09:15 43.27587 -2.84191 3955 ft 144 kts 296°
2026-04-27 09:16 43.28037 -2.85414 3640 ft 144 kts 296°
2026-04-27 09:16 43.28488 -2.86643 3309 ft 144 kts 297°
2026-04-27 09:16 43.28939 -2.87869 2983 ft 143 kts 297°
2026-04-27 09:16 43.29381 -2.89074 2674 ft 143 kts 297°
2026-04-27 09:17 43.29836 -2.90315 2348 ft 146 kts 297°
2026-04-27 09:17 43.30336 -2.91684 2793 ft 171 kts 297°
2026-04-27 09:17 43.30881 -2.93180 3640 ft 186 kts 296°
2026-04-27 09:17 43.31531 -2.94938 3916 ft 228 kts 296°
2026-04-27 09:18 43.32284 -2.96956 3969 ft 228 kts 297°
2026-04-27 09:18 43.32964 -2.98769 3975 ft 204 kts 297°
2026-04-27 09:18 43.33608 -3.00470 3981 ft 199 kts 299°
2026-04-27 09:18 43.34504 -3.01905 3961 ft 199 kts 325°
2026-04-27 09:19 43.35791 -3.02520 3935 ft 199 kts 358°
2026-04-27 09:19 43.37105 -3.02125 3921 ft 198 kts 29°
2026-04-27 09:19 43.38075 -3.00834 3909 ft 196 kts 62°
2026-04-27 09:19 43.38404 -2.98970 3965 ft 207 kts 93°
2026-04-27 09:20 43.37991 -2.97085 4005 ft 209 kts 123°
2026-04-27 09:20 43.36942 -2.95741 4044 ft 208 kts 153°
2026-04-27 09:20 43.35541 -2.95310 4097 ft 209 kts 182°
2026-04-27 09:20 43.34167 -2.95907 4144 ft 210 kts 212°
2026-04-27 09:21 43.33118 -2.97313 4120 ft 212 kts 227°
2026-04-27 09:21 43.31948 -2.98432 4025 ft 209 kts 196°
2026-04-27 09:21 43.30523 -2.98402 3992 ft 208 kts 160°
2026-04-27 09:21 43.29396 -2.97213 3987 ft 208 kts 124°
2026-04-27 09:22 43.29007 -2.95326 3984 ft 210 kts 88°
2026-04-27 09:22 43.29437 -2.93420 3986 ft 212 kts 65°
2026-04-27 09:22 43.30122 -2.91629 3984 ft 212 kts 62°
2026-04-27 09:22 43.30835 -2.89860 3984 ft 212 kts 62°
2026-04-27 09:23 43.31550 -2.88090 3984 ft 212 kts 62°